Wetbulb
51.50 47.89 46.65 49.03 50.61 50.05 49.09 48.09 47.27 49.91 51.72 50.67 50.05 50.61 51.94 54.12 54.47 54.77 55.28 56.55 58.23 59.51 62.71 72.01 71.73 73.48 73.46 73.67 74.33 74.67 74.39 75.36 73.96 73.39 73.67 73.94 72.28 71.38 69.36 68.09 69.30 68.71 67.72 67.70
50.62 47.18 50.30 51.00 50.26 49.43 48.93 47.26 47.05 49.54 51.08 50.50 49.70 49.37 51.98 53.55 54.14 55.07 55.19 55.96 56.97 59.52 61.54 67.05 72.51 73.43 73.73 74.04 73.19 73.84 74.64 75.95 74.63 73.98 74.90 74.66 73.16 70.67 68.95 67.77 69.84 68.31 67.59 68.00
48.33 49.98 51.75 49.70 48.75 47.11 47.27 46.28 46.65 46.40 49.29 50.57 49.09 47.57 49.73 52.46 54.02 55.05 55.74 56.60 57.36 57.81 60.34 64.23 71.51 72.35 72.79 72.25 73.41 73.94 75.34 76.03 75.74 76.32 75.91 76.32 74.42 71.86 68.20 67.61 66.77 67.36 67.69 67.22
49.61 51.95 49.79 48.73 47.22 48.34 45.43 48.77 47.70 46.86 46.36 43.14 49.74 41.79 48.41 50.96 51.49 53.33 54.76 55.45 56.15 57.35 59.58 66.17 69.03 72.07 72.49 70.99 72.16 73.03 74.32 75.36 75.93 77.95 75.74 75.00 71.20 69.11 68.03 67.45 66.49 66.61 68.08 67.48
47.94 49.02 48.93 47.45 47.62 49.15 46.62 49.64 48.34 48.15 46.44 46.09 45.94 43.61 46.96 51.13 50.35 52.27 54.37 55.58 56.32 57.47 58.31 60.72 68.75 72.99 72.81 71.89 72.62 73.31 72.82 75.31 75.99 75.39 76.56 74.69 73.60 71.37 70.14 67.91 69.18 68.03 68.98 68.06
49.87 52.61 50.79 49.77 50.49 50.03 50.04 48.18 48.15 47.93 46.29 41.01 44.93 44.28 44.80 47.79 50.51 52.31 54.51 55.67 56.69 57.27 58.13 59.72 61.72 72.46 73.95 73.73 73.99 74.67 74.75 71.49 74.08 74.06 75.61 76.20 75.28 72.75 69.82 68.59 66.32 65.14 65.44 66.66
48.73 48.99 51.26 51.32 48.21 50.35 49.14 46.82 40.72 39.41 39.56 38.66 46.17 44.01 46.27 50.75 52.62 53.88 54.95 56.59 58.75 60.00 59.84 59.66 59.90 60.47 70.78 73.94 73.98 74.08 73.53 71.64 71.65 71.38 72.90 72.78 73.43 73.68 72.73 70.41 67.24 66.35 65.39 65.67
43.59 43.05 49.33 51.62 49.12 47.55 47.90 46.78 41.24 35.17 37.12 40.70 46.71 41.82 45.60 52.36 55.25 55.98 55.37 56.94 58.36 59.72 60.87 61.40 62.10 62.88 63.63 67.37 73.24 74.61 74.15 72.84 72.02 71.00 69.38 69.53 70.31 72.47 72.36 69.55 67.99 66.53 66.77 67.38
42.76 43.23 50.30 50.12 51.51 50.60 47.86 45.04 49.32 43.65 44.83 41.03 43.53 45.84 49.64 54.20 54.66 54.98 54.94 56.33 57.87 59.32 60.36 61.37 62.56 63.72 64.24 65.13 69.66 73.49 74.32 74.07 71.18 71.83 71.41 71.10 67.27 72.35 73.23 70.57 71.89 68.88 69.47 67.82
44.48 39.12 46.55 48.75 48.85 49.37 48.50 50.46 43.99 44.03 36.99 35.77 41.47 42.91 43.48 49.65 52.03 54.12 54.97 56.04 56.98 58.63 59.75 60.84 62.79 63.77 65.06 65.32 66.74 72.51 73.17 74.77 74.89 71.81 72.79 73.56 72.25 75.33 75.91 72.63 70.80 70.46 70.07 69.78
44.15 41.40 40.87 44.85 43.89 42.97 45.00 44.77 46.23 45.86 44.14 36.74 36.51 41.08 50.88 51.35 52.46 54.33 54.99 55.38 56.20 57.54 59.61 61.04 62.49 64.77 65.23 65.43 64.53 66.51 70.87 71.87 73.65 75.27 73.71 73.70 74.47 73.49 72.75 71.61 68.98 69.33 69.48 69.05
43.54 40.41 36.43 39.49 45.42 45.74 44.87 43.59 45.53 39.06 39.22 43.02 41.11 42.84 53.03 52.78 53.68 54.16 53.58 53.93 55.92 57.25 59.18 61.11 61.84 63.15 64.23 65.64 66.15 64.51 65.55 70.65 71.24 72.94 74.44 72.82 73.03 72.87 68.59 69.60 69.07 66.13 65.46 69.67
42.56 38.05 33.12 35.85 40.61 43.75 40.44 42.74 43.71 44.50 43.04 39.12 36.37 41.93 49.59 49.93 50.52 51.19 50.39 51.48 53.69 55.66 57.96 60.13 61.32 61.76 62.82 63.84 65.67 66.15 64.64 64.89 70.87 71.43 71.72 71.78 72.39 69.60 67.37 65.50 65.79 65.24 65.57 66.18
40.60 37.49 34.94 31.56 35.77 38.46 35.61 39.01 41.90 41.09 36.80 38.44 39.20 41.54 46.27 46.86 48.50 49.65 51.24 50.47 51.78 53.76 56.16 58.15 59.99 60.88 62.07 63.15 63.86 65.28 66.28 65.82 69.05 70.72 69.99 70.89 69.84 66.50 65.28 65.06 65.37 66.39 64.84 65.47
41.03 35.00 37.06 37.11 38.16 37.72 36.75 36.41 37.35 36.53 38.38 35.62 39.18 40.68 43.63 45.94 44.77 47.36 48.38 48.48 50.40 52.40 53.43 54.39 56.91 60.05 61.28 62.21 63.19 64.17 65.76 67.03 69.14 70.17 69.48 69.97 68.47 65.46 65.41 66.08 63.53 66.87 66.22 65.41
41.44 34.88 37.16 34.42 37.20 37.11 34.89 36.63 37.10 37.18 37.42 37.53 38.29 38.80 45.26 45.89 44.08 45.24 45.90 46.69 47.74 50.73 52.50 52.78 54.88 57.78 59.60 61.40 62.36 63.61 64.89 66.72 67.06 67.15 68.35 68.91 67.63 66.40 65.21 65.79 64.08 67.50 67.53 66.90
38.47 36.67 34.11 29.78 35.28 34.92 32.04 35.96 36.98 37.87 39.11 38.85 35.68 40.22 44.15 43.59 44.09 45.07 45.49 46.36 46.36 47.74 48.82 50.72 53.18 56.81 58.78 60.05 61.99 62.55 65.17 66.57 66.09 66.31 66.87 66.96 67.22 65.09 64.26 64.68 64.95 65.67 67.91 68.13
38.96 37.42 34.92 30.25 33.65 24.27 36.14 41.48 40.35 38.79 39.90 41.27 41.66 42.32 43.49 44.00 45.75 46.14 47.03 46.91 47.11 47.82 48.92 50.13 51.93 55.91 58.50 60.06 60.41 62.41 62.34 64.49 64.95 63.71 63.64 63.48 65.04 65.46 64.87 63.97 64.02 64.14 68.17 68.43
42.25 38.53 33.21 30.05 29.48 34.09 36.53 39.49 39.27 38.51 38.08 42.44 41.84 43.04 43.91 45.22 46.48 45.96 48.43 48.90 48.44 49.52 50.74 51.34 52.15 54.01 56.78 57.93 59.78 60.54 60.84 61.99 62.46 61.51 60.56 61.99 63.14 64.22 64.84 63.81 63.49 63.83 67.65 67.66
41.01 41.03 35.73 32.68 27.11 24.42 36.52 41.14 43.41 42.74 33.61 43.77 44.21 44.25 44.31 45.27 40.21 44.40 49.37 50.70 50.37 51.26 52.25 52.56 53.88 53.31 54.36 56.66 60.07 59.57 59.28 59.46 61.07 60.08 58.80 60.23 61.23 64.16 64.14 64.16 63.23 62.64 68.16 67.19
35.35 36.11 32.75 31.66 28.93 33.06 40.52 42.60 44.47 31.66 35.61 45.39 45.50 45.38 44.87 43.20 45.45 48.35 49.62 49.92 50.83 51.42 51.44 52.61 53.39 53.69 54.97 57.56 59.91 57.90 58.73 58.15 60.44 62.16 61.44 56.81 58.56 65.02 65.14 64.90 66.07 63.29 65.79 66.73
34.50 32.34 32.76 33.35 29.60 26.62 42.40 42.02 36.38 41.37 45.17 45.51 45.68 45.82 45.97 47.16 47.69 48.03 48.40 48.97 49.55 49.80 50.44 51.52 51.70 52.70 55.11 57.97 58.63 58.71 57.85 57.08 60.37 60.98 60.32 57.89 53.00 56.56 62.59 64.07 65.38 64.66 64.00 64.79
33.42 35.88 34.53 34.90 34.80 42.17 42.68 41.33 43.93 44.59 43.69 43.99 43.80 45.79 46.59 45.34 45.90 47.47 47.68 48.72 49.32 50.06 50.36 51.18 50.98 52.12 53.97 56.06 57.49 57.92 58.38 57.85 57.20 58.66 57.61 57.07 53.97 52.35 52.33 51.25 53.03 58.87 60.92 61.38
38.60 41.50 36.21 35.70 38.06 39.40 41.23 43.24 44.07 44.41 43.68 45.33 45.76 45.99 46.26 43.99 45.84 46.26 47.02 47.33 48.39 49.13 49.70 50.54 50.66 50.40 51.81 53.98 55.94 55.97 58.84 59.15 58.32 57.27 56.87 56.51 54.82 51.40 52.57 50.91 50.31 49.37 47.73 52.52
38.51 39.33 37.33 37.19 39.89 39.44 41.01 41.32 41.02 41.09 42.05 42.51 44.18 45.74 44.51 44.47 45.96 44.91 46.82 47.67 47.90 48.99 49.83 50.57 50.02 50.39 51.12 52.95 55.58 57.21 58.61 58.89 57.64 56.50 55.89 55.50 55.40 52.28 49.70 48.89 46.95 47.32 44.82 41.89
40.85 37.55 34.25 32.30 37.42 36.49 36.53 39.31 40.27 40.16 40.73 41.87 41.50 41.85 43.71 44.72 43.05 45.27 47.02 46.86 48.22 48.55 49.57 49.65 50.02 50.70 50.60 52.41 53.37 56.29 58.07 58.45 56.12 56.00 55.02 54.40 53.74 50.81 52.30 49.44 43.32 40.18 41.10 40.51
MSLP
1005.64 1005.10 1003.90 1003.50 1003.20 1002.87 1002.08 1001.29 1000.28 999.66 999.82 999.88 999.94 999.43 999.04 998.62 998.28 998.00 997.91 998.47 998.73 999.22 999.30 1000.50 1001.12 1002.71 1005.10 1005.88 1007.21 1007.71 1007.79 1008.16 1009.28 1009.85 1010.15 1010.30 1011.18 1011.52 1012.30 1012.83 1013.78 1014.46 1014.73 1015.17
1004.11 1003.61 1003.14 1002.88 1002.84 1002.54 1002.40 1002.06 1001.23 1000.80 1000.39 1000.17 1000.11 999.76 999.46 998.64 998.17 998.06 998.06 997.81 997.90 998.10 998.70 999.43 1001.30 1001.88 1003.53 1005.97 1007.39 1007.83 1008.43 1008.84 1008.85 1009.07 1009.32 1009.94 1010.92 1011.44 1012.01 1012.64 1013.90 1014.44 1014.83 1015.29
1002.78 1002.04 1001.91 1002.48 1002.38 1002.44 1002.17 1001.87 1001.46 1000.99 1000.63 1000.20 1000.30 999.54 999.11 998.56 998.11 997.88 997.89 997.82 997.70 997.72 997.57 998.82 1000.41 1001.78 1003.48 1004.42 1006.56 1007.20 1008.47 1008.96 1008.78 1008.64 1009.09 1009.99 1010.89 1011.58 1012.17 1013.03 1013.85 1014.49 1014.90 1015.19
1001.97 1001.69 1001.85 1001.71 1001.70 1001.93 1001.43 1001.73 1001.66 1001.42 1000.96 999.93 999.89 998.40 997.77 997.48 997.24 997.18 997.20 997.37 997.34 997.48 997.32 998.07 999.34 1000.82 1002.76 1002.78 1003.51 1007.06 1008.35 1008.35 1008.71 1008.94 1008.64 1009.38 1010.21 1010.91 1011.58 1012.43 1013.38 1014.14 1014.71 1015.14
1001.46 1001.02 1000.94 1001.00 1001.02 1001.36 1001.31 1001.48 1001.33 1000.98 1001.00 1000.67 999.90 998.66 996.91 996.28 995.84 995.79 996.00 996.40 996.67 996.78 996.95 996.88 998.16 999.98 1001.53 1002.53 1004.32 1004.76 1005.86 1007.38 1008.51 1008.83 1008.20 1008.89 1009.74 1010.77 1011.44 1011.77 1012.96 1013.80 1014.57 1015.05
1001.64 1001.18 1000.57 1000.50 1000.69 1001.04 1001.41 1001.41 1001.35 1001.33 1000.82 999.97 999.29 998.58 996.42 995.86 995.68 995.65 995.94 996.46 996.48 996.53 996.43 996.54 996.83 998.39 1000.28 1001.76 1003.26 1005.06 1006.60 1005.02 1006.26 1008.00 1007.00 1008.16 1009.44 1010.44 1011.52 1011.74 1012.39 1013.03 1013.87 1014.56
1001.57 1000.87 1000.76 1000.84 1001.01 1001.34 1001.30 1001.28 1000.92 1000.60 1000.06 998.77 998.70 997.88 996.57 996.09 995.67 996.08 996.58 997.54 998.06 998.26 997.81 997.34 997.26 997.28 998.07 1000.11 1001.83 1003.66 1005.42 1005.33 1006.05 1006.39 1007.87 1009.09 1009.10 1010.24 1011.13 1011.95 1012.17 1012.17 1012.81 1013.66
1002.34 1000.49 1000.17 1000.04 1001.23 1001.32 1000.85 1000.92 1000.38 999.91 999.41 998.09 997.38 996.70 995.97 996.26 996.74 997.72 998.05 998.73 999.34 999.47 999.06 998.96 999.00 998.84 998.28 998.31 999.89 1001.50 1003.79 1005.43 1005.22 1004.23 1008.09 1008.59 1007.43 1009.83 1009.56 1010.56 1011.26 1011.68 1011.92 1012.57
1004.40 1002.38 1001.40 1002.42 1002.59 1002.75 1001.67 1000.93 1000.58 1000.78 1000.09 998.89 997.46 996.60 996.34 996.78 997.60 998.13 998.68 999.61 1000.17 1000.71 1000.55 1000.13 999.92 999.89 999.41 999.11 998.65 1000.50 1001.57 1003.44 1004.72 1005.38 1005.96 1006.90 1005.86 1007.81 1009.37 1009.76 1010.74 1011.68 1011.95 1012.59
1007.50 1006.11 1004.14 1003.44 1004.40 1004.12 1003.20 1002.50 1001.54 1001.08 1000.52 999.67 998.38 997.54 996.74 996.75 997.56 998.52 999.57 1000.48 1001.24 1001.65 1001.17 1000.85 1000.58 1000.60 1000.59 1000.02 999.70 999.82 1000.67 1002.03 1003.58 1004.80 1005.76 1006.62 1007.11 1008.01 1008.42 1009.38 1010.26 1010.92 1011.24 1012.40
1009.96 1008.90 1006.87 1005.50 1004.53 1004.44 1003.70 1003.00 1002.78 1002.63 1001.70 1000.99 1000.06 998.84 999.50 998.21 998.38 999.79 1000.70 1001.83 1002.04 1002.18 1001.77 1001.42 1001.16 1000.92 1000.60 1000.10 999.72 999.75 999.83 1000.87 1001.86 1003.54 1004.95 1006.03 1006.49 1007.38 1007.94 1009.26 1009.99 1010.76 1011.03 1012.30
1011.00 1010.72 1008.68 1007.04 1005.98 1006.50 1006.34 1005.54 1004.73 1004.35 1003.54 1002.67 1001.44 1000.96 1001.90 1002.18 1001.84 1002.17 1002.57 1003.04 1003.09 1002.84 1002.40 1002.11 1001.94 1001.76 1001.62 1001.19 1000.66 1000.09 1000.27 1000.16 1001.18 1002.03 1003.49 1005.02 1006.13 1006.87 1008.35 1009.38 1010.31 1011.35 1011.92 1013.10
1012.57 1011.62 1009.82 1007.98 1007.18 1006.71 1006.97 1006.66 1006.20 1005.98 1005.68 1004.74 1004.18 1002.95 1004.50 1005.56 1004.21 1004.44 1004.02 1003.83 1003.89 1003.59 1003.02 1002.70 1002.76 1002.63 1002.66 1002.46 1001.88 1001.04 1000.06 999.85 1000.30 1001.38 1002.84 1004.44 1005.54 1006.81 1008.11 1009.04 1009.37 1009.82 1010.32 1013.65
1014.67 1013.15 1011.70 1009.86 1007.91 1008.59 1008.52 1008.34 1006.98 1007.16 1006.14 1004.82 1004.31 1004.09 1004.24 1005.83 1005.50 1005.70 1004.64 1004.41 1004.37 1004.09 1003.96 1003.64 1003.48 1003.48 1003.48 1003.20 1002.79 1002.06 1001.01 999.65 999.34 1000.73 1002.32 1003.63 1005.27 1006.72 1007.92 1008.72 1008.72 1008.65 1009.36 1011.78
1014.38 1013.26 1012.18 1010.95 1010.00 1009.61 1009.12 1008.67 1008.12 1007.46 1006.99 1006.16 1004.72 1003.65 1003.35 1004.31 1006.62 1006.45 1006.04 1005.02 1004.67 1004.44 1004.30 1004.40 1004.26 1003.98 1004.06 1003.88 1003.52 1002.98 1002.20 1001.04 1000.00 1000.53 1001.63 1002.82 1004.72 1006.34 1007.73 1008.34 1008.70 1008.95 1009.08 1009.76
1013.51 1013.30 1012.76 1011.68 1010.87 1010.10 1009.18 1008.55 1008.02 1007.51 1007.05 1006.31 1005.51 1004.63 1004.24 1004.37 1005.31 1006.56 1005.70 1005.16 1004.88 1004.89 1004.74 1004.95 1004.83 1004.74 1004.87 1004.43 1004.14 1003.64 1002.73 1002.14 1001.63 1001.19 1001.54 1002.58 1004.30 1005.81 1007.05 1007.86 1008.45 1008.77 1008.82 1009.24
1013.64 1013.38 1012.92 1012.10 1011.49 1010.59 1008.96 1008.22 1007.49 1006.90 1006.45 1005.96 1005.16 1004.68 1004.52 1004.33 1004.55 1005.20 1005.31 1005.38 1005.26 1005.40 1005.52 1005.44 1005.30 1004.99 1005.24 1005.35 1004.92 1004.44 1003.85 1003.39 1003.14 1002.45 1002.22 1002.88 1004.21 1005.32 1006.60 1007.36 1007.76 1007.97 1008.11 1008.71
1012.96 1012.92 1012.65 1012.22 1011.34 1009.94 1008.26 1007.44 1007.38 1007.08 1006.40 1005.57 1004.89 1004.77 1004.86 1004.89 1004.76 1005.03 1005.16 1005.15 1005.33 1005.86 1006.22 1006.30 1005.76 1005.40 1005.31 1005.17 1005.19 1004.94 1004.58 1004.66 1003.92 1004.05 1004.06 1004.18 1003.73 1004.47 1005.88 1006.80 1007.19 1007.56 1007.63 1007.96
1012.24 1012.78 1012.58 1012.20 1011.30 1009.90 1008.29 1007.26 1006.87 1006.54 1006.07 1005.73 1005.20 1004.91 1004.93 1005.02 1004.94 1005.09 1005.18 1005.36 1005.81 1006.40 1007.02 1006.93 1006.66 1006.18 1005.95 1005.77 1005.46 1005.59 1005.39 1004.87 1005.17 1005.00 1005.08 1005.02 1004.68 1004.48 1004.92 1005.83 1006.67 1007.06 1007.24 1007.55
1012.07 1012.50 1012.77 1012.52 1011.52 1009.95 1008.63 1007.76 1007.56 1007.48 1006.34 1006.45 1005.96 1005.59 1005.26 1005.50 1005.07 1005.30 1006.02 1006.48 1006.89 1007.24 1007.30 1007.13 1006.85 1006.66 1006.50 1006.13 1005.73 1006.19 1005.75 1005.49 1005.36 1005.96 1005.84 1005.70 1005.46 1004.85 1004.81 1005.33 1006.13 1006.70 1006.54 1007.09
1011.57 1011.95 1012.45 1012.63 1012.16 1010.45 1009.21 1008.58 1008.06 1008.13 1007.93 1007.16 1006.81 1006.55 1006.28 1006.09 1005.94 1006.32 1006.85 1006.98 1007.21 1007.24 1007.34 1007.27 1006.92 1006.36 1005.99 1006.08 1006.24 1006.39 1006.36 1006.01 1005.96 1006.12 1006.35 1006.23 1005.89 1005.20 1004.87 1005.03 1005.70 1006.26 1006.31 1006.76
1012.03 1012.35 1012.46 1012.39 1011.87 1010.83 1011.03 1010.60 1009.63 1009.37 1009.30 1009.04 1008.56 1008.26 1007.72 1007.51 1007.02 1007.22 1007.38 1007.18 1007.06 1006.96 1006.94 1006.96 1006.94 1006.47 1005.95 1006.24 1006.34 1006.46 1006.73 1007.05 1006.50 1006.88 1006.88 1007.02 1006.82 1006.76 1005.96 1005.43 1005.64 1006.21 1006.39 1006.57
1013.29 1013.81 1013.82 1013.36 1012.12 1011.34 1011.35 1011.28 1011.06 1010.84 1010.31 1009.68 1009.38 1008.90 1008.34 1008.19 1008.03 1007.87 1007.82 1007.57 1007.01 1006.86 1006.66 1006.59 1006.67 1006.40 1005.93 1005.81 1006.39 1006.26 1006.70 1007.24 1007.40 1007.62 1007.65 1007.69 1007.75 1007.84 1007.89 1007.70 1007.36 1007.21 1007.06 1007.14
1013.65 1014.21 1014.44 1014.26 1012.61 1012.48 1012.19 1012.20 1011.93 1011.58 1011.09 1010.42 1009.70 1008.96 1008.38 1007.94 1008.02 1007.82 1007.68 1007.55 1007.10 1006.88 1006.56 1006.30 1006.02 1006.01 1005.76 1005.70 1005.78 1006.76 1006.78 1006.84 1007.35 1007.96 1007.81 1008.43 1008.90 1008.52 1008.98 1008.85 1009.01 1010.06 1010.05 1008.99
1014.40 1014.64 1014.68 1014.02 1013.18 1013.14 1012.63 1012.94 1012.91 1012.30 1011.78 1011.07 1010.16 1009.20 1008.62 1008.40 1008.30 1007.96 1007.64 1007.12 1006.80 1006.53 1006.04 1005.96 1005.80 1005.60 1005.56 1005.47 1005.61 1005.80 1006.86 1006.78 1007.17 1007.98 1008.46 1008.86 1009.13 1009.34 1009.58 1009.62 1010.02 1010.89 1011.77 1012.72
1014.47 1015.43 1015.96 1015.10 1015.01 1014.70 1013.75 1013.38 1012.77 1011.76 1010.94 1010.28 1009.84 1009.27 1008.99 1008.52 1008.12 1007.74 1007.04 1006.81 1006.56 1005.58 1005.44 1005.34 1005.60 1005.53 1005.54 1005.50 1005.25 1004.68 1005.98 1006.75 1007.19 1007.51 1008.46 1008.92 1009.43 1009.61 1010.14 1010.89 1011.51 1010.89 1012.78 1013.44
Wind_Speed
16 12 16 18 19 21 21 21 22 14 16 17 16 18 21 18 20 16 15 17 22 19 25 21 17 13 15 14 17 16 16 19 14 12 11 11 11 10 9 8 11 10 9 8
13 16 17 16 16 17 18 20 23 19 19 14 17 21 20 20 17 18 18 19 18 21 21 15 18 21 23 18 14 14 15 16 15 12 11 11 10 10 10 9 9 9 10 9
19 17 16 12 16 16 19 19 20 21 21 22 20 23 23 23 23 21 20 21 19 22 21 18 23 20 22 23 15 15 16 16 14 15 10 9 9 8 9 10 9 8 9 10
20 19 20 20 15 17 20 17 18 19 18 17 20 18 22 23 26 26 23 22 20 21 22 22 18 23 22 17 24 15 17 17 15 15 15 15 13 11 12 11 10 11 11 9
19 20 22 18 20 17 17 19 20 17 18 20 22 17 18 15 19 16 17 19 22 20 22 21 26 23 22 20 18 24 30 21 16 15 14 14 14 11 10 11 14 12 10 11
24 18 21 16 14 17 17 19 22 20 19 18 24 22 21 18 21 22 13 15 13 13 17 20 18 28 25 21 23 24 22 20 18 14 11 16 13 11 11 12 13 12 12 10
23 25 24 18 19 18 16 16 13 17 16 19 22 23 20 15 19 5 6 7 8 9 10 11 14 11 25 29 25 22 21 16 21 14 8 14 9 10 13 13 12 14 12 12
19 17 19 18 17 21 24 22 17 24 19 20 21 23 20 16 9 1 4 2 4 8 10 9 11 13 15 19 24 24 23 22 22 26 24 14 9 13 15 16 12 11 11 13
15 20 11 2 9 10 17 22 20 25 26 22 22 21 18 13 10 8 4 3 6 7 7 6 6 8 11 14 18 20 21 24 20 20 17 19 20 24 19 18 13 11 10 12
6 13 21 7 4 15 19 18 16 14 22 26 20 23 18 21 17 11 11 7 4 4 6 6 6 4 7 10 12 18 21 24 20 20 18 18 19 17 16 16 16 14 12 12
13 10 17 23 12 17 17 18 20 19 17 15 19 18 11 5 8 12 8 5 4 4 8 8 8 7 8 6 7 11 15 17 18 25 20 18 17 18 12 14 14 8 8 8
9 8 15 19 16 6 11 16 21 10 18 20 19 12 13 7 10 3 7 6 7 7 8 9 10 11 11 11 11 9 12 15 16 17 16 18 16 15 14 14 12 7 8 5
9 8 13 15 18 18 13 19 16 17 16 18 12 11 10 2 2 2 4 7 9 9 9 9 10 11 11 12 12 12 9 14 15 15 16 14 15 14 15 14 15 14 14 8
4 12 16 14 19 9 8 17 13 15 15 19 21 27 23 7 16 18 13 12 10 8 9 11 10 11 13 12 13 13 13 11 14 14 13 16 11 13 13 14 17 20 22 20
9 14 16 17 16 16 17 17 17 16 17 21 21 25 15 10 4 16 18 10 11 9 7 9 11 12 11 14 14 14 12 14 9 11 12 12 15 15 16 14 15 19 22 22
5 13 15 17 18 18 21 21 20 21 22 22 22 22 20 17 4 15 12 12 7 12 10 11 11 12 13 13 14 16 11 10 11 8 9 10 15 16 16 16 20 22 21 22
12 13 13 17 17 19 15 16 21 21 22 19 21 19 17 14 9 9 11 10 10 9 11 13 12 10 6 11 13 15 14 9 10 11 7 6 13 11 13 15 17 20 20 19
16 16 13 14 16 17 18 14 6 15 18 17 18 18 16 16 15 13 14 13 10 11 12 12 12 11 10 8 9 13 13 12 9 10 12 12 8 15 15 16 17 17 17 17
13 13 12 13 15 18 21 14 16 16 17 16 16 16 16 13 13 14 17 14 8 8 11 10 13 13 12 13 11 10 9 9 8 7 9 12 12 8 14 16 14 13 18 16
10 11 11 15 15 18 16 17 5 10 17 15 14 17 20 15 10 5 11 10 8 8 10 11 12 12 12 13 7 9 7 8 10 6 6 9 10 6 6 14 15 14 14 16
10 10 12 12 12 12 17 20 16 15 12 18 13 11 9 10 10 13 10 11 8 10 9 12 13 11 11 7 6 5 8 8 7 6 5 8 10 9 6 10 12 14 13 16
13 8 9 9 8 12 17 17 16 18 22 19 18 15 16 17 16 13 15 14 13 12 12 9 11 11 10 7 1 8 3 7 5 4 6 9 12 11 10 3 9 13 12 13
6 3 7 6 8 20 22 20 18 19 23 22 21 23 22 18 16 17 15 19 15 16 12 11 10 13 11 9 4 6 2 4 3 6 7 9 11 11 12 13 13 5 0 9
7 11 6 11 10 15 17 21 21 23 25 25 25 26 23 22 20 18 18 18 18 17 17 14 13 11 12 8 8 2 8 8 8 6 8 8 8 9 8 8 10 9 8 8
13 11 9 17 20 19 17 18 21 21 21 22 25 22 21 19 21 19 20 17 16 18 17 15 14 10 12 9 11 5 11 8 9 8 7 8 6 7 7 7 7 7 7 8
4 4 3 6 16 16 15 17 23 23 21 19 19 19 20 21 18 19 19 14 19 14 13 13 11 14 10 10 8 8 7 11 7 8 7 6 6 6 5 7 5 15 10 6
Wind_Direction
197 216 221 231 231 257 276 286 286 274 244 253 250 252 252 236 252 252 255 233 238 208 258 171 170 156 173 197 174 194 185 164 170 166 178 176 170 169 169 171 136 170 161 162
205 228 250 249 247 262 252 261 266 271 265 267 252 252 260 265 254 254 254 249 236 236 218 195 175 177 170 192 180 186 196 176 177 173 180 173 177 170 172 159 159 173 166 165
234 232 223 235 256 244 251 252 264 259 260 236 253 258 252 253 253 249 248 251 248 251 235 196 173 186 170 171 176 183 199 186 191 175 174 159 169 157 166 146 163 169 174 175
246 234 248 259 239 252 252 245 246 266 268 256 238 255 250 235 237 242 239 240 246 243 257 192 196 173 184 175 160 187 205 189 195 191 178 176 184 179 184 169 172 165 177 178
251 255 237 252 258 248 252 264 260 243 249 266 260 264 268 261 245 238 230 237 236 234 235 240 184 177 188 181 186 183 186 180 199 195 193 176 189 190 182 174 157 167 171 183
262 261 268 271 253 241 254 256 251 259 261 244 244 251 254 244 237 238 209 252 254 253 240 237 228 178 179 186 192 195 208 167 166 219 187 184 189 185 189 187 168 174 172 180
238 233 243 232 248 258 248 238 250 243 232 246 246 245 250 263 266 24 47 20 2 344 302 297 307 240 181 177 199 190 193 186 179 183 198 173 181 209 196 189 184 179 175 179
280 266 225 196 220 249 239 235 235 247 252 259 239 232 243 233 118 140 202 23 9 348 344 338 307 309 303 194 191 187 183 194 191 171 183 211 140 234 207 178 188 192 185 172
307 268 247 202 274 269 259 257 257 256 273 276 273 266 271 142 158 171 139 34 27 348 319 310 304 297 307 306 195 201 203 195 199 205 203 202 195 208 206 175 185 194 184 170
338 288 284 259 237 262 265 279 274 246 253 254 259 263 260 189 185 160 148 141 78 337 312 330 315 346 293 293 293 200 213 179 192 196 198 207 205 205 194 173 182 195 180 186
301 271 280 294 257 266 262 238 250 265 261 257 274 257 25 27 95 147 113 86 70 6 358 350 351 359 329 311 273 272 200 219 206 184 189 209 209 200 181 169 179 197 163 119
333 312 286 280 285 349 288 281 283 256 255 268 273 247 54 51 115 91 87 47 20 11 24 351 2 15 359 348 337 303 258 200 214 200 189 191 214 188 166 170 154 167 110 110
7 253 275 265 234 227 242 257 251 264 280 251 276 240 97 209 92 67 33 20 343 358 16 8 2 14 10 2 345 327 291 252 195 194 199 199 203 175 171 154 148 133 115 211
319 271 269 280 306 332 280 300 267 250 264 257 241 258 260 275 328 335 328 344 325 335 354 11 359 9 1 13 359 342 321 284 199 196 202 192 175 153 164 159 165 164 165 178
241 278 283 282 293 297 286 277 274 266 265 261 268 272 265 259 47 241 286 309 302 302 331 352 349 348 1 359 358 355 331 324 321 184 197 203 156 164 173 182 185 192 192 187
252 264 279 274 269 260 266 263 264 262 261 265 268 269 284 298 200 255 286 306 318 310 314 322 328 335 357 353 5 342 349 338 323 295 218 170 158 164 185 192 190 201 194 189
270 265 275 277 283 288 267 265 261 254 253 256 260 269 276 288 253 295 289 301 313 324 324 310 305 311 11 332 7 354 7 351 341 323 274 190 153 163 182 192 197 201 203 192
262 266 272 271 279 268 271 274 308 294 295 289 257 258 270 278 294 285 279 289 305 313 314 314 300 307 325 331 345 353 1 9 355 359 346 355 205 182 182 198 202 209 205 196
234 258 265 267 267 273 278 278 265 286 267 277 281 280 278 287 299 294 274 266 289 344 328 319 308 306 310 307 308 331 337 6 355 8 1 352 343 199 190 189 193 205 204 196
236 242 257 270 273 268 267 278 335 296 277 289 283 283 260 276 251 236 18 8 343 305 318 319 306 287 286 291 315 304 329 346 356 8 0 6 336 301 223 184 184 199 211 190
228 245 231 240 254 273 283 286 293 268 291 312 313 311 296 261 281 335 321 305 293 299 296 312 306 293 277 311 284 292 328 334 351 2 28 26 9 324 223 193 182 191 201 185
285 283 259 252 247 256 14 341 310 326 318 317 302 289 293 296 304 298 290 285 282 283 288 294 298 301 293 304 325 269 294 345 355 9 48 51 47 15 18 26 189 196 195 183
306 352 304 299 294 316 315 309 306 299 293 293 284 281 279 276 285 286 279 293 288 295 279 283 285 283 286 259 276 231 188 168 26 85 65 72 71 52 33 33 22 16 249 146
309 313 257 288 273 275 294 306 300 300 296 293 290 287 281 276 281 292 275 275 271 273 272 273 267 275 278 273 253 9 233 182 176 121 102 90 73 84 70 55 47 30 12 2
288 286 273 282 282 323 294 316 305 296 291 287 279 287 277 271 266 269 267 264 266 270 260 254 267 259 280 279 302 165 233 197 165 154 134 123 105 86 67 72 82 56 48 22
320 21 299 289 304 290 289 290 293 289 283 278 275 275 278 278 272 268 256 252 254 252 267 254 245 251 253 282 246 253 210 207 195 152 159 137 124 103 101 96 74 80 89 43